Regional Weather Roundup
Issued by NWS Jackson, KY

Home | Current Version | Previous Version | Graphics & Text | Print | Product List | Glossary On
Versions: 1 2 3 4 5 6 7 8 9 10 11 12 13 14 15 16 17 18 19 20 21 22 23 24 25 26 27 28 29 30 31 32 33 34 35 36 37 38 39 40 41 42 43 44 45 46 47 48 49 50
965
ASUS43 KJKL 260810
RWRJKL

EAST KENTUCKY HOURLY WEATHER ROUNDUP
NATIONAL WEATHER SERVICE JACKSON KY
400 AM EDT SUN MAR 26 2017

NOTE: "FAIR" INDICATES FEW OR NO CLOUDS BELOW 12,000 FEET WITH
NO SIGNIFICANT WEATHER AND/OR OBSTRUCTIONS TO VISIBILITY.

* THESE REPORTS ARE NOT UNDER NWS QUALITY CONTROL AND MAY NOT
  REPORT WEATHER SUCH AS PRECIPITATION AND FOG.

KYZ079-080-083-085-087-088-110-112-115-119-120-260900
...EASTERN KENTUCKY...

CITY           SKY/WX    TMP DP  RH WIND       PRES   REMARKS
JACKSON        CLOUDY    63  45  51 S5        30.02F
LONDON         CLOUDY    62  45  53 SW3       30.01F
SOMERSET*      LGT RAIN  55  54  94 CALM      30.03F
MONTICELLO*    RAIN      57  55  93 W10       30.04F
WILLIAMSBURG*  CLOUDY    63  48  59 S8        30.02R
MIDDLESBORO*   CLOUDY    55  49  81 CALM      30.04F
HARLAN APT*    CLOUDY    63  46  55 NE5       30.03F
PIKE CO APT*     N/A     62  46  55 S6        30.05F
BIG SANDY APT* CLOUDY    64  46  53 S7        30.04F
MOREHEAD APT*  MOSUNNY   63  46  55 S5        30.03F
ASHLAND*       PTCLDY    41 N/A N/A CALM      30.00F
$$

KYZ035-036-041-042-044-050-067-078-099-260900
...CENTRAL KENTUCKY...

CITY           SKY/WX    TMP DP  RH WIND       PRES   REMARKS
MT STERLING*   MOCLDY    59  52  77 W3        30.02F
FLEMING/MASON* CLOUDY    59  48  65 S6        30.02S
DANVILLE*      RAIN      55  54  94 SW8       30.02F
LEXINGTON      CLOUDY    60  53  77 SW9       30.01F
FRANKFORT      LGT RAIN  59  54  83 S8        29.99F
LOUISVILLE     LGT RAIN  59  56  89 SE9       29.97F
LEBANON*       LGT RAIN  57  57 100 S10       30.00F
GLASGOW*       LGT RAIN N/A N/A N/A S5        29.99R
BOWLING GREEN  CLOUDY    58  55  90 SE7       29.96F
$$

KYZ091>093-OHZ055-061-077-WVZ005-015-034-035-042-260900
...SOUTHERN OHIO/WEST VIRGINIA...

CITY           SKY/WX    TMP DP  RH WIND       PRES   REMARKS
COVINGTON      CLOUDY    60  56  86 SW8       29.99F
COLUMBUS       CLOUDY    65  50  58 SE10      29.98F
DAYTON         CLOUDY    60  50  69 W5        29.99F
WILMINGTON     CLOUDY    58  49  72 CALM      29.99S
HUNTINGTON     PTCLDY    65  45  48 S7        30.01F
CHARLESTON     CLOUDY    60  47  61 CALM      30.04F
PINEVILLE*     CLOUDY    49  44  84 MISG      30.14F
BECKLEY        CLOUDY    55  44  66 SE7       30.12F
BLUEFIELD      PTCLDY    55  45  68 S12G21    30.13F
LOGAN CO APT*    N/A     63  46  55 CALM      30.06F
$$

VAZ002-007-008-TNZ017-027-036-066-071-260900
...SOUTHWEST VIRGINIA/EAST TENNESSEE...

CITY           SKY/WX    TMP DP  RH WIND       PRES   REMARKS
WISE*          CLOUDY    57  45  62 S3        30.09F
JONESVILLE*      N/A     59  48  67 NE6       30.07F
ABINGDON*      PTCLDY    62  46  56 S10       30.09F
BRISTOL        CLOUDY    58  47  66 VRB3      30.07F
MORRISTOWN*    PTSUNNY   61  48  63 CALM      30.03S
SEVIERVILLE*   PTSUNNY   64  46  52 CALM      30.02R
LAFOLLETTE*    CLOUDY    55  54  94 CALM      30.06S
OAK RIDGE      HVY RAIN  59  55  87 SW5       30.06R FOG
CROSSVILLE     CLOUDY    55  53  93 S8        30.03F
NASHVILLE      CLOUDY    58  56  93 SE7       29.97F
$$

...KEY TO REMARKS...
VSB - VISIBILITY IN MILES
WCI - WIND CHILL INDEX
HX  - HEAT INDEX

$$




USA.gov is the U.S. government's official web portal to all federal, state and local government web resources and services.